Regional Weather Roundup
Issued by NWS

Home | Current Version | Previous Version | Text Only | Print | Product List | Glossary Off
Versions: 1 2 3 4 5 6 7 8 9 10 11 12 13 14 15 16 17 18 19 20 21 22 23 24 25 26 27 28 29 30 31 32 33 34 35 36 37 38 39 40 41 42 43 44 45 46 47 48 49 50

000
ASUS44 KMEG 030600
RWRTN
TENNESSEE HOURLY STATE WEATHER ROUNDUP
NATIONAL WEATHER SERVICE MEMPHIS TN
1200 AM CST SAT DEC 03 2016

TNZ002-004-019-021-049-052-054-088>092-030700-
WEST TENNESSEE

CITY           SKY/WX    TMP DP  RH WIND       PRES   REMARKS
MEMPHIS INTL   CLOUDY    50  35  56 NE6       30.29S
NWS MEMPHIS      N/A     47 N/A N/A MISG        N/A
JACKSON        CLOUDY    42  34  73 CALM      30.31S
DYERSBURG      PTCLDY   N/A N/A N/A E6        30.31S
UNION CITY     CLEAR     39  32  75 CALM      30.32S
PARIS          CLEAR     39  30  70 NE5       30.34R
LEXINGTON      CLEAR     43  30  61 NE5       30.30S
$$

TNZ008-025-027-028-033-062-065-066-030700-
NORTH MIDDLE TENNESSEE

CITY           SKY/WX    TMP DP  RH WIND       PRES   REMARKS
NASHVILLE      CLOUDY    42  30  62 N6        30.34S
SMYRNA         CLOUDY    40  32  73 NW3       30.35R
CROSSVILLE     NOT AVBL
$$

TNZ061-075-076-078-094-096-097-030700-
SOUTH MIDDLE TENNESSEE

CITY           SKY/WX    TMP DP  RH WIND       PRES   REMARKS
TULLAHOMA      CLEAR     37  30  75 N5        30.29S WCI  34
WINCHESTER     CLEAR     36  34  93 CALM      30.28F
MCMINNVILLE    CLEAR     36  32  87 NE5       30.30S WCI  32
SHELBYVILLE    CLEAR     43  34  70 N3        30.31S
$$

TNZ017-018-042-046-047-030700-
NORTHEAST TENNESSEE

CITY           SKY/WX    TMP DP  RH WIND       PRES   REMARKS
TRI CITIES     NOT AVBL
$$

TNZ012-013-036-069-073-074-030700-
CENTRAL EAST TENNESSEE

CITY           SKY/WX    TMP DP  RH WIND       PRES   REMARKS
KNOXVILLE      NOT AVBL
OAK RIDGE      PTCLDY    39  30  70 CALM      30.31R
GATLINBURG     CLEAR     28  27  93 CALM      30.29R
$$

TNZ083-085-099-030700-
SOUTHEAST TENNESSEE

CITY           SKY/WX    TMP DP  RH WIND       PRES   REMARKS
CHATTANOOGA    NOT AVBL
$$

SKY/WX REPORTED AS FAIR MEANS FEW OR NO CLOUDS BELOW
12 THOUSAND FEET.




USA.gov is the U.S. government's official web portal to all federal, state and local government web resources and services.